| time (UTC) | temp F | wind direction | speed MPH | gust MPH | rain 1hr in | rain 24hr in | rain mn in | humidity % | barometer mb |
| 20260506173002 | 60 | 67 | 0.0 | 14.0 | 0.00 | 0.00 | 0.00 | 50 | 1017.6 |
| 20260506171606 | 59 | 62 | 2.0 | 11.0 | 0.00 | 0.00 | 0.00 | 48 | 1017.6 |
| 20260506170109 | 59 | 72 | 2.0 | 11.0 | 0.00 | 0.00 | 0.00 | 51 | 1017.3 |
| 20260506164557 | 58 | 115 | 1.0 | 12.0 | 0.00 | 0.00 | 0.00 | 52 | 1017.4 |
| 20260506163055 | 58 | 349 | 4.0 | 10.0 | 0.00 | 0.00 | 0.00 | 49 | 1017.6 |
| 20260506161552 | 58 | 14 | 1.0 | 9.0 | 0.00 | 0.00 | 0.00 | 53 | 1017.8 |
| 20260506160059 | 57 | 42 | 1.0 | 15.0 | 0.00 | 0.00 | 0.00 | 56 | 1017.5 |
| 20260506154548 | 56 | 116 | 3.0 | 14.0 | 0.00 | 0.00 | 0.00 | 54 | 1017.1 |
| 20260506153041 | 55 | 74 | 3.0 | 11.0 | 0.00 | 0.00 | 0.00 | 55 | 1017.0 |
| 20260506151543 | 55 | 20 | 4.0 | 10.0 | 0.00 | 0.00 | 0.00 | 58 | 1017.1 |
| 20260506150036 | 54 | 69 | 2.0 | 16.0 | 0.00 | 0.00 | 0.00 | 60 | 1017.1 |
| 20260506144532 | 53 | 37 | 1.0 | 7.0 | 0.00 | 0.00 | 0.00 | 64 | 1017.2 |
| 20260506143034 | 52 | 15 | 0.0 | 1.0 | 0.00 | 0.00 | 0.00 | 70 | 1016.9 |
| 20260506141525 | 51 | 15 | 0.0 | 7.0 | 0.00 | 0.00 | 0.00 | 73 | 1016.8 |
| 20260506140022 | 50 | 16 | 0.0 | 6.0 | 0.00 | 0.00 | 0.00 | 75 | 1016.4 |
| 20260506134523 | 50 | 42 | 0.0 | 8.0 | 0.00 | 0.00 | 0.00 | 76 | 1016.9 |
| 20260506133017 | 49 | 313 | 1.0 | 7.0 | 0.00 | 0.00 | 0.00 | 77 | 1017.2 |
| 20260506131535 | 48 | 43 | 0.0 | 7.0 | 0.00 | 0.00 | 0.00 | 78 | 1017.0 |
| 20260506130023 | 48 | 81 | 0.0 | 6.0 | 0.00 | 0.00 | 0.00 | 79 | 1017.0 |
| 20260506124510 | 48 | 128 | 0.0 | 0.0 | 0.00 | 0.00 | 0.00 | 80 | 1016.7 |
| 20260506123008 | 47 | 109 | 0.0 | 0.0 | 0.00 | 0.00 | 0.00 | 80 | 1016.5 |
| 20260506121508 | 47 | 26 | 0.0 | 6.0 | 0.00 | 0.00 | 0.00 | 80 | 1015.9 |
| 20260506120012 | 47 | 339 | 0.0 | 0.0 | 0.00 | 0.00 | 0.00 | 80 | 1015.9 |
| 20260506114503 | 47 | 332 | 0.0 | 0.0 | 0.00 | 0.00 | 0.00 | 80 | 1015.9 |
| 20260506113002 | 47 | 65 | 0.0 | 3.0 | 0.00 | 0.00 | 0.00 | 80 | 1015.7 |
| 20260506111559 | 47 | 325 | 1.0 | 8.0 | 0.00 | 0.00 | 0.00 | 79 | 1015.6 |
| 20260506110103 | 47 | 76 | 0.0 | 8.0 | 0.00 | 0.00 | 0.00 | 78 | 1015.0 |
| 20260506104556 | 48 | 76 | 2.0 | 7.0 | 0.00 | 0.00 | 0.00 | 76 | 1015.3 |
| 20260506103052 | 48 | 164 | 1.0 | 11.0 | 0.00 | 0.00 | 0.00 | 76 | 1014.9 |
| 20260506101549 | 48 | 31 | 0.0 | 8.0 | 0.00 | 0.00 | 0.00 | 77 | 1015.2 |
| 20260506100046 | 48 | 104 | 1.0 | 9.0 | 0.00 | 0.00 | 0.00 | 76 | 1014.9 |
| 20260506094554 | 48 | 357 | 3.0 | 10.0 | 0.00 | 0.00 | 0.00 | 76 | 1014.1 |
| 20260506093042 | 48 | 53 | 1.0 | 9.0 | 0.00 | 0.00 | 0.00 | 77 | 1013.9 |
| 20260506091541 | 48 | 333 | 2.0 | 8.0 | 0.00 | 0.00 | 0.00 | 77 | 1013.7 |
| 20260506090039 | 48 | 318 | 0.0 | 0.0 | 0.00 | 0.00 | 0.00 | 79 | 1014.0 |
| 20260506084541 | 49 | 306 | 0.0 | 1.0 | 0.00 | 0.00 | 0.00 | 81 | 1013.8 |
| 20260506083037 | 48 | 316 | 0.0 | 0.0 | 0.00 | 0.00 | 0.00 | 90 | 1014.2 |
| 20260506081535 | 48 | 302 | 0.0 | 0.0 | 0.00 | 0.00 | 0.00 | 91 | 1013.9 |
| 20260506073029 | 48 | 334 | 0.0 | 0.0 | 0.00 | 0.00 | 0.00 | 89 | 1012.6 |
| 20260506071529 | 48 | 320 | 0.0 | 0.0 | 0.00 | 0.00 | 0.00 | 88 | 1012.4 |
| 20260506061523 | 49 | 92 | 0.0 | 0.0 | 0.00 | 0.00 | 0.00 | 85 | 1012.3 |
| 20260506044510 | 48 | 115 | 0.0 | 0.0 | 0.00 | 0.00 | 0.00 | 84 | 1012.0 |
| 20260506043010 | 48 | 40 | 0.0 | 0.0 | 0.00 | 0.00 | 0.00 | 83 | 1011.9 |
| 20260506041514 | 48 | 100 | 0.0 | 0.0 | 0.00 | 0.00 | 0.00 | 83 | 1012.1 |
| 20260506040010 | 48 | 299 | 0.0 | 0.0 | 0.00 | 0.00 | 0.00 | 83 | 1012.3 |
| 20260506034510 | 48 | 346 | 0.0 | 0.0 | 0.00 | 0.00 | 0.00 | 82 | 1012.4 |
| 20260506033006 | 48 | 62 | 0.0 | 0.0 | 0.00 | 0.00 | 0.00 | 82 | 1012.6 |
| 20260506031505 | 49 | 3 | 0.0 | 0.0 | 0.00 | 0.00 | 0.00 | 81 | 1012.4 |
| 20260506030009 | 49 | 12 | 0.0 | 0.0 | 0.00 | 0.00 | 0.00 | 79 | 1012.2 |
| 20260506024603 | 49 | 320 | 0.0 | 0.0 | 0.00 | 0.00 | 0.00 | 77 | 1012.2 |
| 20260506023101 | 49 | 318 | 0.0 | 0.0 | 0.00 | 0.00 | 0.00 | 75 | 1011.7 |
| 20260506021555 | 49 | 327 | 0.0 | 11.0 | 0.00 | 0.00 | 0.00 | 75 | 1011.2 |
| 20260506020053 | 50 | 23 | 0.0 | 8.0 | 0.00 | 0.00 | 0.00 | 75 | 1011.0 |
| 20260506014552 | 50 | 18 | 0.0 | 0.0 | 0.00 | 0.00 | 0.00 | 74 | 1010.6 |
| 20260506013051 | 50 | 348 | 0.0 | 10.0 | 0.00 | 0.00 | 0.00 | 73 | 1010.3 |
| 20260506011547 | 50 | 78 | 0.0 | 0.0 | 0.00 | 0.00 | 0.00 | 74 | 1010.3 |
| 20260506010047 | 50 | 31 | 0.0 | 0.0 | 0.00 | 0.00 | 0.00 | 71 | 1010.3 |
| 20260506004542 | 50 | 31 | 0.0 | 14.0 | 0.00 | 0.00 | 0.00 | 69 | 1010.0 |
| 20260506003040 | 50 | 320 | 0.0 | 0.0 | 0.00 | 0.00 | 0.00 | 77 | 1009.6 |
| 20260506001541 | 50 | 52 | 0.0 | 0.0 | 0.00 | 0.00 | 0.00 | 77 | 1009.2 |
| 20260506000040 | 50 | 130 | 0.0 | 5.0 | 0.00 | 0.00 | 0.00 | 76 | 1009.6 |
| 20260505234539 | 50 | 48 | 1.0 | 10.0 | 0.00 | 0.00 | 0.00 | 78 | 1009.3 |
| 20260505233036 | 51 | 45 | 0.0 | 1.0 | 0.00 | 0.00 | 0.00 | 77 | 1009.4 |
| 20260505231542 | 51 | 16 | 0.0 | 8.0 | 0.00 | 0.00 | 0.00 | 76 | 1009.2 |
| 20260505230048 | 51 | 332 | 0.0 | 12.0 | 0.00 | 0.00 | 0.00 | 75 | 1008.8 |
| 20260505224530 | 51 | 42 | 3.0 | 13.0 | 0.00 | 0.00 | 0.00 | 74 | 1008.6 |
| 20260505223029 | 52 | 81 | 1.0 | 9.0 | 0.00 | 0.00 | 0.00 | 74 | 1008.4 |
| 20260505221528 | 52 | 130 | 2.0 | 15.0 | 0.00 | 0.00 | 0.00 | 73 | 1008.3 |
| 20260505220031 | 52 | 8 | 1.0 | 15.0 | 0.00 | 0.00 | 0.00 | 74 | 1008.3 |
| 20260505214527 | 51 | 69 | 1.0 | 14.0 | 0.00 | 0.00 | 0.00 | 75 | 1008.2 |
| 20260505213025 | 51 | 54 | 1.0 | 17.0 | 0.00 | 0.00 | 0.00 | 76 | 1008.2 |
| 20260505211525 | 51 | 58 | 4.0 | 16.0 | 0.00 | 0.00 | 0.00 | 76 | 1008.2 |
| 20260505210023 | 51 | 22 | 0.0 | 12.0 | 0.00 | 0.00 | 0.00 | 80 | 1008.0 |
| 20260505204522 | 50 | 43 | 3.0 | 14.0 | 0.00 | 0.00 | 0.00 | 80 | 1008.0 |
| 20260505203022 | 50 | 83 | 5.0 | 16.0 | 0.00 | 0.00 | 0.00 | 80 | 1008.0 |
| 20260505201520 | 50 | 22 | 6.0 | 16.0 | 0.00 | 0.00 | 0.00 | 81 | 1008.0 |
| 20260505200016 | 51 | 62 | 2.0 | 13.0 | 0.00 | 0.00 | 0.00 | 77 | 1008.1 |
| 20260505194512 | 51 | 35 | 4.0 | 18.0 | 0.00 | 0.00 | 0.00 | 75 | 1008.4 |
| 20260505193011 | 51 | 60 | 4.0 | 14.0 | 0.00 | 0.00 | 0.00 | 75 | 1007.9 |
| 20260505191509 | 52 | 54 | 0.0 | 20.0 | 0.00 | 0.00 | 0.00 | 73 | 1007.7 |
| 20260505190010 | 52 | 54 | 6.0 | 22.0 | 0.00 | 0.00 | 0.00 | 73 | 1007.4 |
| 20260505184505 | 52 | 59 | 5.0 | 20.0 | 0.00 | 0.00 | 0.00 | 73 | 1007.0 |
| 20260505183102 | 52 | 357 | 3.0 | 14.0 | 0.00 | 0.00 | 0.00 | 72 | 1007.2 |
| 20260505181503 | 52 | 29 | 4.0 | 19.0 | 0.00 | 0.00 | 0.00 | 72 | 1007.2 |
| 20260505180107 | 52 | 40 | 0.0 | 24.0 | 0.00 | 0.00 | 0.00 | 74 | 1006.7 |
| 20260505180001 | 52 | 47 | 3.0 | 24.0 | 0.00 | 0.00 | 0.00 | 73 | 1006.7 |
| 20260505174611 | 52 | 53 | 7.0 | 19.0 | 0.00 | 0.00 | 0.00 | 74 | 1006.8 |